Date,TemperatureHighF,TemperatureAvgF,TemperatureLowF,DewpointHighF,DewpointAvgF,DewpointLowF,HumidityHigh,HumidityAvg,HumidityLow,PressureMaxIn,PressureMinIn,WindSpeedMaxMPH,WindSpeedAvgMPH,GustSpeedMaxMPH,PrecipitationSumIn
2013-5-1,83.0,77.8,74.0,-99.9,-99.9,-99.9,0,0,100,30.10,30.01,11,-23,19,0.00
2013-5-2,82.0,77.2,73.0,-99.9,-99.9,-99.9,0,0,100,30.11,30.04,13,-10,19,0.00
2013-5-3,80.0,75.9,73.0,-99.9,-99.9,-99.9,0,0,100,30.10,30.00,11,-37,14,0.00
2013-5-4,79.0,75.8,73.0,-99.9,-99.9,-99.9,0,0,100,30.04,29.92,12,-45,14,0.00
2013-5-5,76.0,73.5,69.0,-99.9,-99.9,-99.9,0,0,100,29.97,29.88,18,-8,23,0.00
2013-5-6,79.0,74.8,71.0,-99.9,-99.9,-99.9,0,0,100,29.99,29.88,11,-10,13,0.00
2013-5-7,77.0,74.2,71.0,-99.9,-99.9,-99.9,0,0,100,30.02,29.93,10,-86,12,0.00
2013-5-8,77.0,74.2,70.0,-99.9,-99.9,-99.9,0,0,100,30.04,29.95,10,-93,11,0.00
2013-5-9,80.0,75.9,73.0,-99.9,-99.9,-99.9,0,0,100,30.11,29.98,9,-31,12,0.00
2013-5-10,83.0,76.3,74.0,-99.9,-99.9,-99.9,0,0,100,30.13,30.04,11,-2,20,0.00
2013-5-11,81.0,75.8,73.0,-99.9,-99.9,-99.9,0,0,100,30.12,30.03,15,7,26,0.00
2013-5-12,80.0,75.6,73.0,-99.9,-99.9,-99.9,0,0,100,30.13,30.03,12,5,26,0.00
2013-5-13,81.0,77.5,75.0,-99.9,-99.9,-99.9,0,0,100,30.10,30.03,14,6,24,0.00
2013-5-14,83.0,78.8,75.0,-99.9,-99.9,-99.9,0,0,100,30.14,30.06,14,6,22,0.00
2013-5-15,83.0,78.2,76.0,-99.9,-99.9,-99.9,0,0,100,30.16,30.09,10,5,20,0.00
2013-5-16,82.0,73.6,74.0,-99.9,-99.9,-99.9,0,0,100,30.16,30.06,13,6,21,0.00
2013-5-17,83.0,77.2,74.0,-99.9,-99.9,-99.9,0,0,100,30.11,30.01,12,6,21,0.00
2013-5-18,81.0,76.8,74.0,-99.9,-99.9,-99.9,0,0,100,30.07,29.97,12,3,15,0.00
2013-5-19,80.0,75.0,72.0,-99.9,-99.9,-99.9,0,0,100,30.05,29.93,10,-3,14,0.00
2013-5-20,78.0,73.8,71.0,-99.9,-99.9,-99.9,0,0,100,30.02,29.93,9,4,13,0.00
2013-5-21,78.0,74.4,70.0,-99.9,-99.9,-99.9,0,0,100,30.03,29.94,8,-80,11,0.00
2013-5-22,83.0,77.5,72.0,-99.9,-99.9,-99.9,0,0,100,30.07,29.96,8,-108,13,0.00
2013-5-23,86.0,79.4,74.0,-99.9,-99.9,-99.9,0,0,100,30.09,29.98,9,-66,17,0.00
2013-5-24,84.0,79.2,76.0,-99.9,-99.9,-99.9,0,0,100,30.10,30.03,13,-16,19,0.00
2013-5-25,82.0,77.9,75.0,-99.9,-99.9,-99.9,0,0,100,30.11,30.03,12,5,22,0.00
2013-5-26,82.0,78.2,75.0,-99.9,-99.9,-99.9,0,0,100,30.13,30.03,15,-16,23,0.00
2013-5-27,82.0,78.3,73.0,-99.9,-99.9,-99.9,0,0,100,30.13,30.05,11,6,21,0.00
2013-5-28,82.0,76.2,72.0,-99.9,-99.9,-99.9,0,0,100,30.12,30.04,9,-24,14,0.00
2013-5-29,83.0,76.6,73.0,-99.9,-99.9,-99.9,0,0,100,30.11,30.03,9,-109,15,0.00
2013-5-30,84.0,78.8,74.0,-99.9,-99.9,-99.9,0,0,100,30.07,29.96,12,-103,19,0.00
2013-5-31,82.0,78.6,75.0,-99.9,-99.9,-99.9,0,0,100,30.08,29.97,11,-10,20,0.00